User: anonymous   Login
Location: Unspecified
(0.0000°N, 0.0000°E)
Time: 17:54:20
(UTC+00:00)
Language:

CUTE 1.7 + AOD 2 - Orbit

View from above orbital plane
View from above orbital plane
View from above satellite
View from above satellite

Ground track
Ground track

The orbit data is extracted from the following two-line orbital elements,

1 32785U 08021C   16341.22344095  .00000287  00000-0  37104-4 0  9996
2 32785  97.5856   8.1288 0014707  88.2297 272.0605 14.87746295466202
Epoch (UTC): 06 December 2016 05:21:45
Eccentricity: 0.0014707
inclination: 97.5856°
perigee height: 595 km
apogee height: 615 km
right ascension of ascending node: 8.1288°
argument of perigee: 88.2297°
revolutions per day: 14.87746295
mean anomaly at epoch: 272.0605°
orbit number at epoch: 46620

The dashed part of the orbit path shows where the satellite is in the earth's shadow,  

DLR